| Date | Time | Temp. (oF) | Dew Point (oF) | Rel. Hum. (%) | Press. (in.) | Wind Dir. | Wind Speed (mph) | Hourly Rainfall (in.) |
|
|---|---|---|---|---|---|---|---|---|---|
| 1 | 05/22 | 00:00 | 63 | 61 | 95 | 29.97 | NE | 5 | 0.00 |
| 2 | 05/21 | 23:00 | 62 | 59 | 93 | 29.99 | SE | 3 | 0.00 |
| 3 | 05/21 | 22:00 | 63 | 60 | 92 | 30.00 | ENE | 4 | 0.00 |
| 4 | 05/21 | 21:00 | 65 | 61 | 88 | 29.98 | E | 6 | 0.00 |
| 5 | 05/21 | 20:00 | 67 | 61 | 84 | 29.98 | SE | 4 | 0.00 |
| 6 | 05/21 | 19:00 | 69 | 62 | 81 | 29.99 | SE | 4 | 0.00 |
| 7 | 05/21 | 18:00 | 70 | 63 | 80 | 29.99 | SE | 6 | 0.00 |
| 8 | 05/21 | 17:00 | 69 | 62 | 80 | 30.01 | SE | 4 | 0.00 |
| 9 | 05/21 | 16:00 | 69 | 62 | 80 | 30.03 | SSE | 2 | 0.00 |
| 10 | 05/21 | 15:00 | 69 | 63 | 82 | 30.04 | SE | 11 | 0.00 |
| 11 | 05/21 | 14:00 | 67 | 62 | 86 | 30.07 | ESE | 10 | 0.00 |
| 12 | 05/21 | 13:00 | 65 | 61 | 89 | 30.09 | E | 2 | 0.00 |
| 13 | 05/21 | 12:00 | 65 | 61 | 87 | 30.09 | ESE | 7 | 0.00 |
| 14 | 05/21 | 11:00 | 65 | 61 | 88 | 30.10 | ESE | 7 | 0.00 |
| 15 | 05/21 | 10:00 | 64 | 62 | 94 | 30.11 | ENE | 2 | 0.00 |
| 16 | 05/21 | 09:00 | 63 | 61 | 95 | 30.13 | ESE | 5 | 0.00 |
| 17 | 05/21 | 08:00 | 63 | 62 | 98 | 30.13 | ESE | 8 | 0.00 |
| 18 | 05/21 | 07:00 | 63 | 62 | 98 | 30.12 | E | 6 | 0.00 |
| 19 | 05/21 | 06:00 | 63 | 62 | 97 | 30.12 | E | 2 | 0.01 |
| 20 | 05/21 | 05:00 | 64 | 62 | 94 | 30.12 | E | 10 | 0.00 |
| 21 | 05/21 | 04:00 | 64 | 62 | 94 | 30.12 | SE | 4 | 0.00 |
| 22 | 05/21 | 03:00 | 64 | 61 | 92 | 30.13 | ESE | 9 | 0.00 |
| 23 | 05/21 | 02:00 | 65 | 61 | 87 | 30.14 | ENE | 7 | 0.00 |
| 24 | 05/21 | 01:00 | 66 | 61 | 86 | 30.16 | E | 5 | 0.00 |